Total_Precipitation_Accumulation
0.00 0.00 0.00 0.00 0.01 0.00 0.00 0.00 0.00 0.00 0.00 0.00 0.00 0.00 0.00 0.00 0.00 0.00 0.00 0.00 0.00 0.00 0.01 0.01 0.02 0.02 0.03 0.04 0.06 0.07 0.07 0.06 0.05 0.05 0.05 0.05 0.05 0.05 0.07 0.08 0.09 0.09 0.10
0.00 0.00 0.00 0.00 0.00 0.00 0.00 0.00 0.00 0.00 0.00 0.00 0.00 0.00 0.00 0.00 0.00 0.00 0.00 0.00 0.00 0.00 0.00 0.01 0.02 0.04 0.07 0.08 0.08 0.09 0.07 0.06 0.06 0.06 0.06 0.06 0.06 0.07 0.08 0.09 0.10 0.11 0.12
0.00 0.00 0.00 0.00 0.00 0.00 0.00 0.00 0.00 0.00 0.00 0.00 0.00 0.00 0.00 0.00 0.00 0.00 0.00 0.00 0.00 0.00 0.00 0.01 0.03 0.06 0.09 0.09 0.10 0.11 0.09 0.07 0.07 0.07 0.07 0.07 0.08 0.08 0.09 0.10 0.11 0.12 0.13
0.01 0.00 0.00 0.00 0.01 0.00 0.00 0.00 0.00 0.00 0.01 0.00 0.00 0.00 0.01 0.01 0.00 0.00 0.00 0.00 0.00 0.00 0.00 0.01 0.02 0.05 0.07 0.09 0.11 0.15 0.16 0.13 0.10 0.07 0.06 0.06 0.06 0.07 0.09 0.10 0.11 0.13 0.14
0.04 0.02 0.01 0.01 0.02 0.01 0.01 0.01 0.01 0.01 0.02 0.02 0.02 0.02 0.02 0.01 0.01 0.00 0.00 0.00 0.00 0.01 0.01 0.01 0.02 0.03 0.04 0.05 0.07 0.14 0.19 0.19 0.14 0.09 0.06 0.05 0.05 0.06 0.07 0.09 0.11 0.13 0.14
0.10 0.07 0.04 0.04 0.05 0.04 0.03 0.04 0.03 0.04 0.04 0.05 0.05 0.02 0.01 0.01 0.01 0.01 0.01 0.01 0.01 0.02 0.02 0.03 0.02 0.01 0.01 0.02 0.04 0.08 0.15 0.21 0.20 0.15 0.10 0.07 0.05 0.04 0.05 0.07 0.09 0.11 0.14
0.21 0.17 0.10 0.09 0.09 0.08 0.08 0.09 0.09 0.09 0.08 0.09 0.07 0.03 0.02 0.01 0.01 0.01 0.01 0.01 0.01 0.03 0.03 0.04 0.03 0.02 0.01 0.01 0.02 0.03 0.08 0.15 0.21 0.22 0.18 0.14 0.11 0.09 0.08 0.09 0.10 0.13 0.16
0.25 0.22 0.17 0.17 0.17 0.16 0.14 0.14 0.15 0.12 0.11 0.13 0.12 0.11 0.04 0.01 0.00 0.01 0.01 0.01 0.02 0.03 0.03 0.04 0.03 0.03 0.02 0.02 0.02 0.02 0.04 0.09 0.18 0.24 0.24 0.21 0.18 0.16 0.16 0.17 0.17 0.17 0.19
0.26 0.23 0.23 0.24 0.23 0.22 0.18 0.18 0.19 0.17 0.15 0.16 0.17 0.18 0.11 0.04 0.02 0.01 0.02 0.02 0.03 0.03 0.03 0.04 0.04 0.04 0.04 0.03 0.03 0.04 0.05 0.07 0.12 0.20 0.26 0.27 0.25 0.24 0.24 0.25 0.26 0.27 0.26
0.29 0.28 0.27 0.27 0.26 0.24 0.21 0.23 0.26 0.24 0.22 0.18 0.17 0.15 0.14 0.11 0.10 0.06 0.03 0.04 0.05 0.04 0.05 0.05 0.05 0.05 0.04 0.05 0.06 0.08 0.11 0.12 0.14 0.20 0.29 0.35 0.33 0.34 0.36 0.39 0.41 0.41 0.38
0.28 0.29 0.29 0.28 0.26 0.26 0.26 0.27 0.29 0.29 0.27 0.25 0.22 0.22 0.22 0.16 0.12 0.14 0.09 0.06 0.07 0.07 0.07 0.06 0.06 0.05 0.06 0.07 0.09 0.13 0.18 0.19 0.22 0.26 0.32 0.40 0.46 0.50 0.55 0.58 0.58 0.55 0.52
0.20 0.23 0.25 0.26 0.26 0.27 0.27 0.28 0.32 0.35 0.36 0.33 0.28 0.25 0.28 0.26 0.20 0.21 0.20 0.14 0.13 0.12 0.11 0.10 0.10 0.10 0.11 0.13 0.16 0.22 0.26 0.29 0.33 0.36 0.40 0.48 0.55 0.61 0.67 0.71 0.73 0.71 0.68
0.15 0.17 0.20 0.22 0.25 0.29 0.34 0.37 0.37 0.37 0.41 0.40 0.37 0.33 0.33 0.32 0.31 0.33 0.34 0.27 0.22 0.19 0.18 0.18 0.18 0.19 0.20 0.22 0.27 0.35 0.39 0.44 0.47 0.49 0.54 0.63 0.67 0.66 0.65 0.68 0.73 0.77 0.79
0.20 0.23 0.25 0.27 0.30 0.32 0.33 0.35 0.36 0.37 0.41 0.42 0.42 0.40 0.35 0.31 0.33 0.37 0.42 0.46 0.44 0.36 0.33 0.32 0.32 0.33 0.34 0.36 0.41 0.47 0.47 0.52 0.52 0.53 0.57 0.63 0.63 0.59 0.55 0.56 0.63 0.70 0.74
0.16 0.20 0.23 0.26 0.27 0.27 0.28 0.30 0.30 0.32 0.34 0.36 0.36 0.37 0.35 0.32 0.33 0.35 0.41 0.48 0.56 0.53 0.43 0.36 0.36 0.38 0.40 0.42 0.47 0.46 0.44 0.51 0.52 0.51 0.54 0.55 0.52 0.49 0.46 0.46 0.49 0.54 0.57
0.13 0.17 0.20 0.21 0.21 0.21 0.21 0.22 0.23 0.24 0.26 0.26 0.27 0.29 0.29 0.28 0.30 0.32 0.37 0.42 0.49 0.55 0.52 0.39 0.35 0.37 0.40 0.42 0.46 0.41 0.38 0.44 0.44 0.44 0.44 0.44 0.42 0.38 0.36 0.35 0.37 0.41 0.44
0.13 0.15 0.17 0.17 0.16 0.15 0.15 0.16 0.16 0.17 0.18 0.18 0.19 0.21 0.23 0.23 0.25 0.27 0.31 0.37 0.42 0.47 0.52 0.46 0.41 0.42 0.43 0.41 0.39 0.35 0.31 0.30 0.28 0.32 0.32 0.31 0.29 0.28 0.26 0.26 0.26 0.28 0.30
0.11 0.12 0.12 0.11 0.10 0.09 0.10 0.11 0.13 0.13 0.14 0.15 0.17 0.19 0.21 0.23 0.26 0.28 0.31 0.34 0.37 0.39 0.42 0.41 0.36 0.34 0.33 0.30 0.26 0.21 0.17 0.15 0.14 0.17 0.18 0.18 0.18 0.17 0.17 0.17 0.19 0.22 0.25
0.09 0.08 0.07 0.07 0.07 0.07 0.09 0.10 0.11 0.11 0.13 0.15 0.17 0.19 0.21 0.24 0.27 0.28 0.29 0.31 0.32 0.31 0.31 0.31 0.28 0.24 0.21 0.18 0.16 0.12 0.09 0.08 0.06 0.06 0.07 0.08 0.09 0.11 0.13 0.15 0.16 0.16 0.16
0.08 0.07 0.06 0.06 0.07 0.07 0.09 0.10 0.11 0.12 0.15 0.16 0.19 0.21 0.24 0.26 0.27 0.28 0.29 0.30 0.28 0.25 0.23 0.23 0.23 0.21 0.18 0.13 0.10 0.07 0.05 0.04 0.04 0.03 0.03 0.04 0.05 0.06 0.05 0.05 0.05 0.06 0.06
0.07 0.07 0.07 0.08 0.09 0.10 0.12 0.13 0.15 0.18 0.22 0.25 0.27 0.29 0.30 0.32 0.31 0.28 0.25 0.22 0.19 0.18 0.21 0.26 0.26 0.20 0.12 0.08 0.06 0.04 0.04 0.03 0.02 0.02 0.02 0.01 0.01 0.01 0.01 0.01 0.02 0.03 0.06
0.10 0.12 0.13 0.16 0.19 0.22 0.30 0.27 0.23 0.23 0.27 0.29 0.30 0.30 0.29 0.28 0.25 0.23 0.20 0.18 0.19 0.23 0.30 0.32 0.23 0.12 0.06 0.04 0.04 0.05 0.07 0.09 0.06 0.01 0.01 0.01 0.00 0.00 0.00 0.01 0.02 0.03 0.05
0.25 0.28 0.30 0.32 0.35 0.42 0.47 0.40 0.36 0.31 0.31 0.31 0.29 0.26 0.23 0.20 0.18 0.14 0.12 0.13 0.16 0.19 0.20 0.14 0.07 0.03 0.03 0.04 0.08 0.13 0.12 0.12 0.08 0.01 0.02 0.02 0.00 0.01 0.01 0.01 0.01 0.01 0.02
0.55 0.57 0.58 0.56 0.53 0.52 0.50 0.42 0.37 0.32 0.30 0.26 0.21 0.16 0.13 0.10 0.08 0.08 0.09 0.14 0.11 0.08 0.04 0.02 0.02 0.02 0.03 0.04 0.08 0.14 0.14 0.10 0.03 0.01 0.01 0.02 0.00 0.00 0.00 0.00 0.00 0.00 0.02
0.72 0.68 0.65 0.60 0.53 0.46 0.38 0.28 0.21 0.17 0.16 0.13 0.10 0.07 0.06 0.05 0.06 0.10 0.15 0.17 0.07 0.01 0.01 0.02 0.03 0.03 0.03 0.02 0.03 0.10 0.15 0.15 0.09 0.01 0.00 0.00 0.00 0.00 0.00 0.00 0.00 0.00 0.02
0.58 0.50 0.45 0.39 0.33 0.28 0.21 0.15 0.11 0.08 0.07 0.05 0.03 0.02 0.03 0.03 0.06 0.12 0.13 0.09 0.02 0.01 0.02 0.01 0.00 0.00 0.00 0.00 0.01 0.07 0.20 0.35 0.26 0.12 0.00 0.04 0.06 0.08 0.15 0.02 0.00 0.00 0.01